| time (UTC) | temp F | wind direction | speed MPH | gust MPH | rain 1hr in | rain 24hr in | rain mn in | humidity % | barometer mb |
| 20260510094541 | 69 | 0 | 0.0 | 0.0 | 0.00 | 0.00 | 0.00 | 94 | 1014.9 |
| 20260510093036 | 69 | 0 | 0.0 | 0.0 | 0.00 | 0.00 | 0.00 | 94 | 1014.8 |
| 20260510091534 | 69 | 0 | 0.0 | 0.0 | 0.00 | 0.00 | 0.00 | 94 | 1014.7 |
| 20260510090036 | 69 | 0 | 0.0 | 0.0 | 0.00 | 0.00 | 0.00 | 94 | 1014.7 |
| 20260510084824 | 69 | 0 | 0.0 | 0.0 | 0.00 | 0.00 | 0.00 | 94 | 1014.2 |
| 20260510083607 | 69 | 0 | 0.0 | 0.0 | 0.00 | 0.00 | 0.00 | 94 | 1014.2 |
| 20260510081834 | 69 | 0 | 0.0 | 0.0 | 0.00 | 0.00 | 0.00 | 94 | 1014.3 |
| 20260510080033 | 69 | 0 | 0.0 | 0.0 | 0.00 | 0.00 | 0.00 | 94 | 1014.5 |
| 20260510074541 | 69 | 0 | 0.0 | 0.0 | 0.00 | 0.00 | 0.00 | 94 | 1014.3 |
| 20260510073035 | 69 | 0 | 0.0 | 0.0 | 0.00 | 0.00 | 0.00 | 93 | 1014.1 |
| 20260510071537 | 69 | 0 | 0.0 | 0.0 | 0.00 | 0.00 | 0.00 | 93 | 1014.0 |
| 20260510070037 | 69 | 0 | 0.0 | 0.0 | 0.00 | 0.00 | 0.00 | 93 | 1014.0 |
| 20260510064536 | 69 | 0 | 0.0 | 0.0 | 0.00 | 0.00 | 0.00 | 93 | 1014.2 |
| 20260510063035 | 70 | 0 | 0.0 | 0.0 | 0.00 | 0.00 | 0.00 | 93 | 1014.2 |
| 20260510061535 | 70 | 0 | 0.0 | 0.0 | 0.00 | 0.00 | 0.00 | 93 | 1014.2 |
| 20260510060035 | 70 | 0 | 0.0 | 0.0 | 0.00 | 0.00 | 0.00 | 93 | 1014.2 |
| 20260510054542 | 70 | 0 | 0.0 | 0.0 | 0.00 | 0.01 | 0.00 | 93 | 1014.5 |
| 20260510053035 | 70 | 0 | 0.0 | 0.0 | 0.00 | 0.01 | 0.00 | 93 | 1014.6 |
| 20260510051536 | 70 | 0 | 0.0 | 0.0 | 0.00 | 0.01 | 0.00 | 93 | 1014.7 |
| 20260510050037 | 70 | 0 | 0.0 | 0.0 | 0.00 | 0.01 | 0.00 | 92 | 1014.8 |
| 20260510044541 | 70 | 0 | 0.0 | 0.0 | 0.00 | 0.02 | 0.00 | 92 | 1014.8 |
| 20260510043035 | 70 | 0 | 0.0 | 2.0 | 0.00 | 0.02 | 0.00 | 92 | 1014.5 |
| 20260510041546 | 71 | 0 | 0.0 | 0.0 | 0.00 | 0.02 | 0.00 | 93 | 1014.4 |
| 20260510040040 | 71 | 0 | 0.0 | 0.0 | 0.00 | 0.02 | 0.00 | 92 | 1014.4 |
| 20260510034537 | 71 | 0 | 0.0 | 0.0 | 0.00 | 0.03 | 0.02 | 92 | 1014.3 |
| 20260510033035 | 71 | 0 | 0.0 | 0.0 | 0.00 | 0.03 | 0.02 | 92 | 1014.4 |
| 20260510031548 | 71 | 0 | 0.0 | 0.0 | 0.00 | 0.03 | 0.02 | 92 | 1014.4 |
| 20260510030038 | 71 | 0 | 0.0 | 0.0 | 0.00 | 0.03 | 0.02 | 92 | 1014.1 |
| 20260510024541 | 71 | 0 | 0.0 | 0.0 | 0.00 | 0.03 | 0.02 | 92 | 1014.2 |
| 20260510023035 | 71 | 0 | 0.0 | 0.0 | 0.00 | 0.03 | 0.02 | 91 | 1014.3 |
| 20260510021534 | 71 | 0 | 0.0 | 0.0 | 0.00 | 0.03 | 0.02 | 91 | 1014.0 |
| 20260510020035 | 71 | 0 | 0.0 | 0.0 | 0.00 | 0.03 | 0.02 | 90 | 1014.0 |
| 20260510014532 | 71 | 0 | 0.0 | 0.0 | 0.00 | 0.03 | 0.02 | 90 | 1013.8 |
| 20260510013042 | 71 | 0 | 0.0 | 0.0 | 0.00 | 0.03 | 0.02 | 90 | 1014.0 |
| 20260510011535 | 71 | 0 | 0.0 | 0.0 | 0.00 | 0.03 | 0.02 | 90 | 1013.7 |
| 20260510010035 | 71 | 0 | 0.0 | 0.0 | 0.00 | 0.03 | 0.02 | 90 | 1013.6 |
| 20260510004541 | 71 | 0 | 0.0 | 0.0 | 0.00 | 0.03 | 0.02 | 90 | 1013.4 |
| 20260510003034 | 71 | 0 | 0.0 | 0.0 | 0.00 | 0.03 | 0.02 | 90 | 1013.1 |
| 20260510001535 | 72 | 0 | 0.0 | 0.0 | 0.00 | 0.03 | 0.02 | 89 | 1013.1 |
| 20260510000035 | 72 | 0 | 0.0 | 0.0 | 0.00 | 0.03 | 0.02 | 89 | 1013.0 |
| 20260509234535 | 72 | 0 | 0.0 | 0.0 | 0.00 | 0.03 | 0.02 | 89 | 1013.0 |
| 20260509233035 | 72 | 0 | 0.0 | 0.0 | 0.00 | 0.03 | 0.02 | 89 | 1012.8 |
| 20260509231546 | 72 | 0 | 0.0 | 0.0 | 0.00 | 0.03 | 0.02 | 88 | 1012.7 |
| 20260509230036 | 72 | 0 | 0.0 | 0.0 | 0.00 | 0.03 | 0.02 | 89 | 1012.3 |
| 20260509224536 | 72 | 0 | 0.0 | 0.0 | 0.00 | 0.03 | 0.02 | 88 | 1012.5 |
| 20260509223043 | 72 | 0 | 0.0 | 0.0 | 0.00 | 0.03 | 0.02 | 88 | 1012.7 |
| 20260509221536 | 73 | 0 | 0.0 | 0.0 | 0.00 | 0.03 | 0.02 | 88 | 1012.7 |
| 20260509220044 | 73 | 0 | 0.0 | 0.0 | 0.00 | 0.03 | 0.02 | 89 | 1012.7 |
| 20260509214534 | 73 | 0 | 0.0 | 0.0 | 0.00 | 0.03 | 0.02 | 88 | 1013.0 |
| 20260509213035 | 73 | 0 | 0.0 | 0.0 | 0.00 | 0.03 | 0.02 | 88 | 1013.1 |
| 20260509211536 | 73 | 0 | 0.0 | 0.0 | 0.00 | 0.03 | 0.02 | 88 | 1013.0 |
| 20260509210048 | 73 | 0 | 0.0 | 0.0 | 0.00 | 0.03 | 0.02 | 87 | 1012.8 |
| 20260509204535 | 74 | 0 | 0.0 | 0.0 | 0.00 | 0.03 | 0.02 | 87 | 1013.0 |
| 20260509203036 | 74 | 0 | 0.0 | 0.0 | 0.00 | 0.03 | 0.02 | 87 | 1012.9 |
| 20260509201534 | 75 | 0 | 0.0 | 0.0 | 0.00 | 0.03 | 0.02 | 86 | 1012.8 |
| 20260509200046 | 75 | 0 | 0.0 | 0.0 | 0.00 | 0.03 | 0.02 | 86 | 1012.9 |
| 20260509194535 | 76 | 0 | 0.0 | 0.0 | 0.00 | 0.03 | 0.02 | 86 | 1013.0 |
| 20260509193035 | 76 | 0 | 0.0 | 0.0 | 0.00 | 0.03 | 0.02 | 85 | 1012.7 |
| 20260509191535 | 76 | 0 | 0.0 | 2.0 | 0.00 | 0.03 | 0.02 | 84 | 1012.7 |
| 20260509190039 | 77 | 0 | 0.0 | 1.0 | 0.00 | 0.03 | 0.02 | 82 | 1012.7 |
| 20260509184540 | 77 | 0 | 0.0 | 2.0 | 0.00 | 0.03 | 0.02 | 81 | 1012.7 |
| 20260509183035 | 77 | 0 | 0.0 | 0.0 | 0.00 | 0.03 | 0.02 | 81 | 1012.8 |
| 20260509181536 | 77 | 0 | 0.0 | 0.0 | 0.00 | 0.03 | 0.02 | 81 | 1013.0 |
| 20260509180035 | 77 | 0 | 0.0 | 2.0 | 0.00 | 0.03 | 0.02 | 81 | 1013.3 |
| 20260509174535 | 77 | 0 | 0.0 | 2.0 | 0.00 | 0.03 | 0.02 | 82 | 1013.2 |
| 20260509173100 | 78 | 115 | 0.0 | 2.0 | 0.00 | 0.03 | 0.02 | 86 | 1013.2 |
| 20260509171540 | 77 | 0 | 0.0 | 4.0 | 0.00 | 0.03 | 0.02 | 85 | 1013.4 |
| 20260509170046 | 78 | 139 | 1.0 | 3.0 | 0.00 | 0.03 | 0.02 | 84 | 1013.4 |
| 20260509164535 | 78 | 0 | 0.0 | 4.0 | 0.00 | 0.03 | 0.02 | 83 | 1013.5 |
| 20260509163040 | 79 | 210 | 1.0 | 5.0 | 0.00 | 0.03 | 0.02 | 82 | 1013.5 |
| 20260509161540 | 78 | 0 | 0.0 | 3.0 | 0.00 | 0.03 | 0.02 | 86 | 1013.7 |
| 20260509160036 | 77 | 181 | 0.0 | 3.0 | 0.00 | 0.03 | 0.02 | 87 | 1013.7 |
| 20260509154535 | 76 | 200 | 1.0 | 3.0 | 0.00 | 0.03 | 0.02 | 87 | 1013.8 |
| 20260509153036 | 75 | 136 | 0.0 | 2.0 | 0.00 | 0.03 | 0.02 | 89 | 1014.0 |
| 20260509151545 | 74 | 0 | 0.0 | 2.0 | 0.00 | 0.03 | 0.02 | 90 | 1013.8 |
| 20260509150045 | 73 | 0 | 0.0 | 0.0 | 0.00 | 0.03 | 0.02 | 90 | 1014.2 |
| 20260509144535 | 72 | 0 | 0.0 | 1.0 | 0.00 | 0.03 | 0.02 | 90 | 1014.2 |
| 20260509143041 | 73 | 0 | 0.0 | 1.0 | 0.00 | 0.03 | 0.02 | 94 | 1014.3 |
| 20260509141535 | 72 | 0 | 0.0 | 0.0 | 0.00 | 0.03 | 0.02 | 94 | 1014.0 |
| 20260509140034 | 72 | 0 | 0.0 | 1.0 | 0.00 | 0.03 | 0.02 | 95 | 1013.8 |
| 20260509134540 | 72 | 0 | 0.0 | 1.0 | 0.00 | 0.03 | 0.02 | 95 | 1013.8 |
| 20260509133037 | 72 | 0 | 0.0 | 0.0 | 0.00 | 0.03 | 0.02 | 96 | 1013.9 |
| 20260509131542 | 72 | 0 | 0.0 | 0.0 | 0.00 | 0.03 | 0.02 | 96 | 1013.9 |
| 20260509130056 | 72 | 0 | 0.0 | 0.0 | 0.00 | 0.03 | 0.02 | 96 | 1014.3 |
| 20260509124537 | 71 | 0 | 0.0 | 0.0 | 0.00 | 0.03 | 0.02 | 96 | 1013.9 |
| 20260509123102 | 72 | 0 | 0.0 | 0.0 | 0.00 | 0.03 | 0.02 | 96 | 1013.9 |
| 20260509121541 | 71 | 0 | 0.0 | 3.0 | 0.00 | 0.03 | 0.02 | 98 | 1013.4 |
| 20260509120046 | 69 | 0 | 0.0 | 0.0 | 0.00 | 0.03 | 0.02 | 96 | 1013.6 |
| 20260509114541 | 68 | 0 | 0.0 | 0.0 | 0.00 | 0.03 | 0.02 | 97 | 1013.6 |
| 20260509113036 | 66 | 0 | 0.0 | 0.0 | 0.00 | 0.03 | 0.02 | 96 | 1013.4 |
| 20260509111534 | 66 | 0 | 0.0 | 0.0 | 0.00 | 0.03 | 0.02 | 96 | 1013.3 |
| 20260509110039 | 66 | 0 | 0.0 | 0.0 | 0.00 | 0.03 | 0.02 | 96 | 1013.2 |
| 20260509104535 | 65 | 0 | 0.0 | 0.0 | 0.00 | 0.03 | 0.02 | 95 | 1012.9 |
| 20260509103036 | 65 | 0 | 0.0 | 0.0 | 0.00 | 0.03 | 0.02 | 95 | 1012.7 |
| 20260509101606 | 65 | 0 | 0.0 | 0.0 | 0.00 | 0.03 | 0.02 | 95 | 1012.7 |